CZ-6A DEB, 64643

Orbit data source: Space-Track

CZ-6A DEB, 64643 is space debris in LEO originally from a launch on Tue, 06 Aug 2024 UTC launched from the Taiyaun Space Center, China (TSC). Debris objects in space refer to the collection of defunct objects orbiting the Earth. Examples of debris include non-operational satellites, rocket bodies, and fragments generated from explosions, collisions, or faulty payload assembly.

Loading next visibility...
Identifier
64643, 2024-140AEH
Orbit
LEO
Country
Flag of CNCN / PRC
Related business
Manufacturer
SAST
Mission
Spacecraft
Bus & Motor
Unknown
Mass
Unknown
Launch date (UTC)
2024-08-06 (2 years ago)
Launch vehicle
Unknown
Launch site
Taiyaun Space Center, China (TSC)
Object type
Payload
Rocket body
Debris
Shape & HBR
Unknown shape, 0.1 m
Radar Cross Section
Medium (>0.1 m² and <1 m²)

Expand to show TLE details & history
Last TLE update: 1 day ago

TLE from 1 day ago
0 CZ-6A DEB
1 64643U 24140AEH 26170.82198264  .00001934  00000-0  76802-3 0  9993
2 64643  89.1447 285.4749 0071645 217.0185 142.6055 14.27035087 90373
Epoch: 2026-06-19T19:43Z
TLE epoch observation values (Epoch: 2026-06-19T19:43:39.300Z)
Latitude
-0.00002°
Longitude
81.5157°
Altitude
845.733 km
Speed
7.409 km/s
True Right ascension
19h 01m 53s
True Declination
0° 00' 00"
Sunlit
Object was in full shadow at epoch
Visualization orbit readout
Latitude
Unknown
Longitude
Unknown
Altitude
Unknown
Speed
Unknown
Apparent Right ascension
Unknown
Apparent Declination
Unknown
Sunlit
N/A
Visualization observer readout
Local Sidereal Time
10:18:08
Azimuth
Unknown
Elevation
Unknown
Doppler factor
Unknown
Orbital elements
Apogee altitude
850.016 km
Perigee altitude
747.181 km
Semi-major axis
7,176.736 km
Eccentricity
0.00716
Inclination
89.1447°
RAAN
285.4749°
Arg. of periapsis
217.0185°
True anomaly
143.10056°
Mean anomaly
142.6055°
Eccentric anomaly
142.85338°
Mean motion
3.56987 °/min
Orbital period
100.84 mins
BSTAR
0.00076802
Loading maneuver chart data...
Computing Atmospheric mass density...
Loading historical data...
Loading historical data...
Loading historical data...
Loading historical data...
Loading historical data...
Loading historical data...
Loading historical data...

Documentation

Showing up to 5 results
|